Theta_e
309 309 309 308 307 309 308 309 304 306 306 310 312 315 319 322 322 324 326 328 330 332 334 337 338 339 339 338 338 342 340 339 338 341 341 341 339 338 338 338 336 336 335 335
305 308 309 307 309 309 308 308 307 307 306 312 318 320 320 321 321 322 325 328 330 332 334 334 333 333 332 331 330 332 332 333 337 336 336 336 336 336 336 334 334 334 332 331
302 307 307 303 307 308 309 310 308 305 309 314 315 317 320 321 322 323 325 327 329 330 332 332 331 331 329 329 331 331 330 330 331 331 330 331 331 330 329 330 330 328 326 325
305 306 297 307 312 310 308 309 311 311 311 314 317 321 323 325 323 324 326 327 329 331 331 331 331 329 329 329 328 327 325 325 327 327 326 326 326 327 327 327 324 324 323 322
303 302 305 306 309 308 308 307 313 312 315 318 321 322 321 325 326 326 327 329 330 331 331 331 329 328 327 326 326 325 324 324 324 324 324 325 323 325 326 325 324 324 324 325
307 299 297 308 311 313 313 302 315 315 317 319 320 311 317 325 326 327 328 331 331 330 330 329 328 328 327 326 325 322 322 322 322 322 322 320 321 322 323 322 318 316 316 319
300 299 303 310 311 312 301 305 316 317 318 320 317 321 324 325 326 328 329 328 330 330 330 329 329 329 325 322 320 321 319 319 318 320 320 320 321 321 319 318 317 317 316 318
303 299 296 312 311 306 314 318 317 319 321 322 324 323 322 323 325 326 326 327 328 330 329 328 328 325 320 318 319 318 316 315 315 317 316 315 318 319 318 317 316 315 315 314
307 307 314 316 316 318 318 317 318 320 321 322 321 319 320 321 322 324 325 327 326 323 321 324 324 321 316 317 317 315 314 314 314 315 315 316 316 316 313 316 312 312 310 310
307 312 313 315 317 319 319 318 319 319 320 319 318 318 317 319 321 321 320 318 320 319 317 316 321 317 317 316 317 316 314 315 315 315 315 317 315 313 312 311 311 309 309 309
306 311 312 314 315 316 316 317 317 317 317 317 316 315 316 316 316 316 316 318 319 316 314 314 314 315 315 315 317 316 315 315 315 314 315 314 315 314 313 316 311 311 310 310
304 313 312 311 313 315 314 314 316 315 313 314 314 313 313 313 314 314 314 315 315 314 314 314 314 315 316 317 317 317 315 313 312 312 312 311 312 313 305 300 300 297 296 301
310 314 313 314 315 314 312 315 316 314 313 312 312 313 311 311 312 311 312 313 312 312 313 314 314 314 315 317 317 317 316 317 314 311 311 311 311 311 310 310 300 297 295 293
312 311 308 310 310 313 316 315 312 314 314 313 312 311 310 310 310 310 310 312 313 313 312 313 313 313 316 318 317 317 317 305 314 313 311 310 310 309 310 309 308 311 301 299
309 311 311 312 312 313 315 314 312 311 311 309 311 309 308 308 309 310 311 312 313 313 312 312 311 312 316 317 316 316 315 314 314 312 311 308 309 308 308 309 311 310 310 305
310 310 310 311 310 312 312 310 310 309 308 309 309 307 309 311 311 312 312 312 311 310 312 312 313 314 316 316 315 314 314 303 304 310 309 308 308 308 310 309 309 307 307 306
308 308 309 309 310 310 308 308 307 307 308 308 308 311 311 311 311 311 311 313 313 313 313 314 314 315 315 315 313 312 311 310 302 309 307 308 311 307 306 305 304 303 303 302
309 308 309 309 307 306 306 307 308 308 308 309 310 310 309 309 309 310 311 312 312 312 312 313 313 313 313 313 312 311 309 307 308 307 310 309 306 307 305 303 303 301 303 301
310 308 308 308 308 307 308 308 309 310 310 310 309 308 309 309 309 309 310 309 309 309 310 312 301 306 312 308 306 310 308 309 307 309 309 302 305 304 303 302 301 301 300 300
307 307 307 307 308 308 307 308 308 308 309 309 307 306 306 307 307 306 305 305 309 309 309 310 310 310 312 309 301 311 310 308 305 309 307 305 306 306 305 298 301 301 301 303
306 306 306 306 307 307 308 308 308 306 306 306 305 303 302 303 303 303 301 300 306 309 310 304 310 311 310 306 307 311 309 307 306 308 308 306 306 305 307 305 306 306 306 307
307 306 306 306 307 307 307 307 306 304 303 304 303 302 303 304 303 303 304 302 305 296 306 310 310 295 304 292 311 310 310 309 310 310 310 309 308 307 306 306 307 308 305 305
308 307 307 307 306 305 306 305 306 304 303 304 305 304 302 303 303 301 299 304 306 301 306 309 292 287 287 307 311 312 309 309 312 311 311 310 309 308 306 304 304 304 305 305
307 307 305 305 306 305 304 302 306 306 306 306 305 304 304 302 303 304 304 298 295 300 307 304 298 288 287 311 312 310 310 311 311 310 307 296 306 305 305 304 304 304 304 303
304 305 305 304 304 304 303 304 305 306 305 306 307 307 305 306 305 306 307 309 293 301 310 293 292 293 308 309 310 309 308 307 306 305 305 304 304 303 303 303 302 302 303 303
305 305 305 308 306 304 305 304 303 303 304 304 306 306 306 309 309 310 310 306 310 302 306 306 304 304 304 305 306 306 305 304 303 301 300 301 300 300 300 300 300 301 301 301
303 298 308 308 305 305 306 305 303 304 303 304 305 307 309 309 308 307 303 309 305 302 301 302 304 303 306 305 304 303 301 299 293 300 301 300 300 299 299 299 299 298 298 298
Wind_Speed
2 0 9 15 16 14 12 7 8 6 7 6 3 5 6 5 4 6 9 10 11 10 10 9 9 8 7 7 6 4 1 3 6 8 6 7 7 6 6 6 7 7 8 9
4 6 11 12 13 13 8 8 3 3 4 3 3 2 2 2 4 8 9 11 12 12 13 12 10 8 7 6 6 4 2 1 1 3 4 5 5 5 5 7 7 7 9 9
8 8 11 12 14 13 10 9 6 8 6 1 3 1 2 4 5 7 9 10 10 11 10 8 7 6 5 5 3 4 5 4 4 5 5 6 6 6 7 7 7 7 7 8
6 9 13 7 4 2 5 7 6 3 3 3 2 4 4 2 5 7 7 8 7 7 7 6 5 5 5 4 3 4 5 6 6 7 6 5 4 6 8 7 7 7 7 6
5 11 6 6 4 4 7 9 7 4 5 7 8 7 6 3 3 5 5 6 6 6 5 5 6 5 5 5 6 6 7 7 7 6 6 7 8 10 8 8 9 10 10 13
0 4 5 10 5 2 0 8 9 6 9 10 11 9 10 7 4 4 3 3 1 2 3 3 5 5 5 5 5 6 7 6 6 6 7 7 7 7 7 7 9 10 11 12
5 7 3 5 3 2 8 3 5 2 5 8 7 7 7 4 4 4 3 2 1 1 2 3 3 4 4 5 5 4 5 5 6 6 6 6 7 6 7 9 9 10 12 12
3 5 7 4 4 5 6 3 3 2 3 6 4 3 3 5 5 5 4 3 2 2 1 1 2 3 3 3 2 4 5 6 6 6 6 7 7 8 9 10 11 11 11 11
5 6 4 1 2 2 1 2 4 2 3 2 3 3 2 3 3 2 2 3 3 3 3 3 1 3 5 4 5 4 5 6 7 7 8 8 8 9 10 10 11 11 12 12
3 4 2 3 3 2 2 1 0 1 2 2 2 1 1 1 1 3 4 5 3 4 5 4 2 4 5 7 6 7 9 9 9 9 9 9 9 10 10 11 10 12 12 13
4 4 3 7 5 3 4 4 4 3 3 2 1 1 2 2 3 4 4 3 2 4 5 6 5 6 7 7 7 10 11 11 11 11 11 10 9 8 11 11 10 12 12 12
4 8 5 8 6 5 8 7 6 4 2 1 0 1 2 4 4 4 5 4 5 6 7 8 8 9 10 9 9 10 11 11 10 10 12 10 9 9 7 10 14 12 14 11
7 6 8 9 6 10 9 8 6 5 3 2 2 2 2 5 5 5 6 7 7 8 9 10 11 11 11 10 8 10 9 10 10 10 11 8 9 10 13 12 12 15 12 7
8 9 11 10 9 8 8 5 3 5 4 3 2 1 4 5 5 6 6 6 6 7 8 8 9 9 8 7 7 8 8 4 9 9 8 9 9 12 11 10 9 11 2 6
6 7 10 10 10 9 6 6 5 7 7 5 2 2 3 6 6 7 6 6 7 7 9 9 10 10 6 6 6 7 8 8 10 11 12 11 11 8 9 10 11 11 10 6
11 11 10 9 10 5 6 4 8 6 4 1 2 4 5 6 7 7 7 7 7 8 9 10 9 5 6 6 8 9 8 3 5 10 10 9 7 9 11 11 10 9 8 9
9 9 7 8 8 6 5 2 3 4 2 3 4 6 7 8 9 10 9 8 9 9 9 9 8 7 7 7 9 8 7 7 5 9 8 7 9 9 9 10 8 5 4 4
3 5 6 6 5 6 6 4 4 3 5 6 7 8 9 10 11 12 12 12 11 10 8 8 7 6 8 7 7 6 6 7 8 8 7 8 9 9 8 7 7 5 4 5
8 9 9 9 7 5 4 5 5 6 7 8 9 11 11 11 11 11 11 11 11 8 6 8 4 5 5 6 6 6 4 4 5 5 5 9 8 7 8 7 7 8 7 6
7 7 6 5 5 6 6 6 7 7 7 8 9 10 10 10 8 8 8 10 8 6 6 5 4 5 5 5 3 3 3 1 5 5 7 6 7 8 10 10 8 7 6 3
4 5 5 6 5 4 5 6 7 7 7 7 8 8 8 7 7 6 6 6 6 5 1 3 4 4 2 2 4 2 1 9 6 3 3 4 5 1 5 6 6 5 2 1
5 6 6 6 6 5 6 6 6 5 6 7 7 7 9 6 5 6 5 5 1 5 4 4 4 6 5 7 4 4 8 8 4 4 2 4 5 5 5 4 4 2 5 6
5 5 6 7 7 6 6 4 4 6 7 7 8 7 5 3 3 2 3 1 2 3 6 3 6 4 5 6 3 7 7 6 1 4 5 4 4 5 7 7 6 7 7 6
6 6 5 5 5 4 5 6 5 5 6 6 5 6 5 2 1 2 2 2 3 3 6 5 4 5 6 5 7 7 7 3 4 4 4 2 6 7 7 7 7 7 7 7
4 4 4 3 4 4 4 5 4 5 6 5 5 5 3 2 3 4 4 4 3 1 8 5 5 5 9 7 8 7 6 6 8 7 7 7 7 7 7 7 8 8 7 7
4 3 3 2 4 3 3 3 4 3 2 3 4 5 3 4 4 5 7 9 11 9 8 9 9 9 8 8 8 8 9 8 8 9 9 8 8 8 8 7 7 7 7 7
2 3 2 1 4 3 3 4 3 4 4 4 4 6 6 7 6 8 10 10 8 8 8 8 7 6 8 9 9 8 8 9 10 9 8 8 8 8 8 8 8 7 7 8
Wind_Direction
339 358 200 196 178 180 202 212 230 146 226 103 19 358 7 354 31 61 64 65 66 73 82 91 93 91 97 93 76 105 143 243 255 257 268 270 280 300 309 295 296 294 289 289
177 196 202 201 185 185 184 175 189 206 205 59 21 333 11 44 73 86 79 79 80 83 89 88 86 83 77 75 69 62 49 26 340 285 302 314 330 334 323 346 336 337 323 309
185 193 186 198 189 188 172 179 213 214 74 137 232 203 139 103 75 88 91 90 87 85 81 77 76 71 68 69 84 83 73 71 43 16 3 352 353 356 5 0 343 326 307 317
130 176 206 81 94 256 203 181 134 108 153 195 157 133 130 110 88 85 86 90 89 84 89 75 79 84 102 100 94 77 60 50 43 28 20 13 356 333 333 336 330 321 310 288
202 208 102 130 140 164 186 189 182 185 162 158 146 152 143 117 78 93 82 78 71 65 54 49 46 46 25 37 31 26 28 27 21 8 341 325 320 321 324 325 320 315 304 298
32 249 244 72 99 24 143 254 161 194 173 170 167 221 120 151 155 135 108 102 112 42 18 27 44 31 6 10 6 14 13 11 354 341 320 328 337 327 332 325 308 323 316 307
222 262 234 101 84 178 228 35 7 197 176 181 204 47 96 133 159 163 181 180 181 284 330 42 44 4 349 349 18 14 353 330 328 335 325 302 314 312 312 308 318 314 316 312
175 233 236 34 177 249 26 13 11 110 134 169 144 142 123 153 152 175 195 178 214 240 239 126 55 309 320 340 329 316 321 319 319 312 307 329 308 301 304 299 295 308 308 304
334 43 86 65 18 67 158 1 55 70 103 124 174 169 147 152 168 199 239 226 232 260 267 156 213 282 307 319 300 293 298 297 295 302 306 306 305 297 287 291 295 315 321 324
272 126 143 158 192 220 209 250 137 91 160 197 197 153 212 299 252 267 268 277 289 281 291 312 258 281 276 294 278 270 275 286 294 300 292 286 295 304 314 316 316 311 314 324
236 187 204 208 218 241 204 213 200 170 142 101 332 306 347 317 300 299 310 310 286 292 297 289 288 273 274 283 277 274 278 284 287 280 287 305 298 314 310 304 306 309 305 312
301 58 317 315 316 237 257 247 226 213 189 134 339 358 342 327 350 329 320 315 290 292 287 282 285 278 278 281 282 281 279 272 289 312 298 312 307 309 320 265 266 245 244 261
318 334 322 308 305 295 270 236 214 244 251 228 139 360 349 341 331 344 294 292 293 296 294 288 285 286 286 288 286 283 283 289 292 301 306 317 325 324 307 295 256 236 236 198
301 300 281 268 275 293 237 219 200 246 212 182 88 38 348 330 319 305 311 329 323 310 303 299 294 293 307 316 301 298 299 250 273 305 330 319 317 305 305 301 302 310 82 245
306 304 279 290 286 243 225 225 222 218 193 170 139 332 313 307 303 313 327 328 320 310 298 306 305 307 355 332 320 322 307 316 338 321 308 308 305 304 303 317 336 320 321 287
297 289 286 256 259 232 238 220 229 212 198 181 288 306 307 298 291 295 301 309 310 314 312 301 303 326 335 329 330 311 319 76 303 304 315 310 298 313 336 321 312 324 335 358
287 285 292 261 246 246 235 104 31 47 344 335 338 326 306 299 297 290 294 306 302 295 297 297 297 316 322 334 335 326 322 306 293 283 297 335 346 332 340 345 339 337 336 359
63 40 27 34 83 108 101 85 64 17 359 340 318 308 302 298 297 299 297 297 292 285 286 309 342 344 320 347 349 313 319 351 337 327 21 9 11 4 0 355 356 358 2 45
75 74 69 70 70 70 47 13 355 336 319 312 307 302 306 301 298 300 305 295 279 275 328 14 97 266 326 63 313 312 17 327 328 61 58 55 48 41 38 26 31 57 65 66
72 67 57 48 44 15 356 350 333 321 319 320 319 308 302 301 320 318 319 297 307 319 315 318 317 293 317 121 314 352 338 338 102 75 85 87 75 83 84 72 64 57 64 71
38 24 15 7 1 6 355 345 332 330 329 318 312 311 309 301 291 294 297 295 6 329 256 181 271 325 10 17 281 271 282 109 120 163 159 132 114 343 78 72 104 119 151 286
10 5 5 2 348 351 1 351 356 342 308 313 316 288 269 288 305 275 280 266 276 313 317 288 60 41 8 326 305 12 101 141 152 162 263 28 44 28 22 91 99 68 47 60
360 359 343 357 357 349 354 338 336 340 320 305 318 335 322 293 285 294 311 40 153 218 259 73 53 4 321 281 290 101 129 132 210 48 6 10 38 50 44 31 44 47 27 49
353 354 353 356 4 342 348 350 344 331 333 345 28 6 12 18 50 78 87 87 171 279 46 40 17 347 311 66 86 90 124 78 31 30 56 32 31 36 34 28 37 36 38 31
359 348 7 351 332 14 13 357 334 30 350 21 40 69 77 56 59 116 132 132 153 229 72 64 19 88 77 90 105 87 69 41 22 48 41 32 32 34 37 46 35 20 34 39
349 8 321 345 28 12 16 354 20 25 40 82 64 60 41 92 115 123 110 93 78 73 61 63 70 76 86 87 88 70 53 50 49 41 35 35 41 35 36 28 30 29 28 30
0 289 284 71 70 9 24 43 21 66 68 62 70 85 92 89 86 80 71 75 76 78 77 80 87 76 81 80 74 71 74 75 37 37 46 44 42 40 33 33 28 24 26 33